ITONC LIPZ-LIPV

Flight info

Callsign ITONC
Flight time 0h -5m
Altitude
Route CASASVIO
Aircraft P28A

Departure

Time 2026-05-06 16:20
Airport Venice Marco Polo Airport (LIPZ)

Arrival

Time 2026-05-06 16:14
Airport Venice-Lido Giovanni Nicelli Airfield (LIPV)
Time Latitude Longitude Altitude Speed Heading
2026-05-06 16:14 45.49796 12.33607 11 ft 0 kts 223°
2026-05-06 16:16 45.49777 12.33632 11 ft 15 kts 163°
2026-05-06 16:16 45.49649 12.33573 11 ft 25 kts 227°
2026-05-06 16:16 45.49541 12.33555 12 ft 15 kts 135°
2026-05-06 16:16 45.49496 12.33627 12 ft 5 kts 133°
2026-05-06 16:17 45.49494 12.33629 11 ft 0 kts 132°
2026-05-06 16:18 45.49485 12.33643 11 ft 9 kts 128°
2026-05-06 16:18 45.49426 12.33769 10 ft 15 kts 86°
2026-05-06 16:18 45.49475 12.33860 10 ft 0 kts 40°
2026-05-06 16:19 45.49510 12.33907 10 ft 30 kts 40°
2026-05-06 16:19 45.49815 12.34296 95 ft 75 kts 47°
2026-05-06 16:20 45.50210 12.34860 321 ft 88 kts 52°
2026-05-06 16:20 45.50663 12.35520 573 ft 99 kts 50°
2026-05-06 16:20 45.51301 12.35918 834 ft 107 kts
2026-05-06 16:20 45.52016 12.35749 1194 ft 103 kts 340°
2026-05-06 16:21 45.52645 12.35131 1327 ft 119 kts 320°
2026-05-06 16:21 45.53223 12.34255 1493 ft 126 kts 299°
2026-05-06 16:21 45.53444 12.33102 1708 ft 125 kts 257°
2026-05-06 16:21 45.52959 12.32069 1829 ft 126 kts 210°
2026-05-06 16:22 45.52240 12.31368 2006 ft 132 kts 216°
2026-05-06 16:22 45.51486 12.30539 2055 ft 138 kts 215°
2026-05-06 16:22 45.50699 12.29708 2121 ft 143 kts 214°
2026-05-06 16:22 45.49919 12.28870 2143 ft 134 kts 215°
2026-05-06 16:23 45.49172 12.28141 1975 ft 130 kts 205°
2026-05-06 16:23 45.48263 12.27831 1614 ft 138 kts 181°
2026-05-06 16:23 45.47505 12.28276 1505 ft 108 kts 125°
2026-05-06 16:23 45.47570 12.29259 1431 ft 102 kts 85°
2026-05-06 16:24 45.47680 12.30287 1038 ft 113 kts 82°
2026-05-06 16:24 45.48006 12.31320 773 ft 118 kts 68°
2026-05-06 16:24 45.48445 12.32307 460 ft 114 kts 58°
2026-05-06 16:24 45.48952 12.33162 174 ft 109 kts 49°
2026-05-06 16:25 45.49477 12.33856 40 ft 97 kts 44°
2026-05-06 16:25 45.49924 12.34430 11 ft 75 kts 48°
2026-05-06 16:25 45.50317 12.34937 128 ft 81 kts 47°
2026-05-06 16:25 45.50756 12.35477 373 ft 87 kts 46°
2026-05-06 16:26 45.51266 12.36000 645 ft 92 kts 24°
2026-05-06 16:26 45.51899 12.36023 891 ft 92 kts 340°
2026-05-06 16:26 45.52433 12.35442 939 ft 101 kts 308°
2026-05-06 16:26 45.52723 12.34527 933 ft 108 kts 259°
2026-05-06 16:27 45.52474 12.33611 1176 ft 94 kts 239°
2026-05-06 16:27 45.52223 12.32746 1358 ft 98 kts 256°
2026-05-06 16:27 45.52473 12.31847 1550 ft 107 kts 320°
2026-05-06 16:27 45.53200 12.31786 1642 ft 114 kts 32°
2026-05-06 16:28 45.53324 12.32652 1798 ft 96 kts 141°
2026-05-06 16:28 45.52677 12.32737 1900 ft 102 kts 206°
2026-05-06 16:28 45.52204 12.31947 1949 ft 111 kts 232°
2026-05-06 16:28 45.52329 12.30887 2013 ft 122 kts 310°
2026-05-06 16:29 45.53146 12.30467 1984 ft 133 kts 13°
2026-05-06 16:29 45.53592 12.31430 1950 ft 119 kts 108°
2026-05-06 16:29 45.53005 12.32182 1889 ft 121 kts 151°
2026-05-06 16:29 45.52164 12.32255 1683 ft 131 kts 198°
2026-05-06 16:30 45.51627 12.31268 1745 ft 127 kts 251°
2026-05-06 16:30 45.51670 12.30460 1765 ft 127 kts 287°
2026-05-06 16:30 45.52766 12.29821 1588 ft 137 kts 18°
2026-05-06 16:30 45.53325 12.30752 1499 ft 123 kts 89°
2026-05-06 16:31 45.53025 12.31755 1482 ft 110 kts 136°
2026-05-06 16:31 45.52338 12.32071 1476 ft 106 kts 182°
2026-05-06 16:31 45.51702 12.31639 1575 ft 99 kts 222°
2026-05-06 16:31 45.51490 12.30765 1718 ft 97 kts 267°
2026-05-06 16:32 45.51855 12.29940 1787 ft 110 kts 321°
2026-05-06 16:32 45.52633 12.29782 1801 ft 119 kts 18°
2026-05-06 16:32 45.53202 12.30537 1795 ft 111 kts 76°
2026-05-06 16:32 45.53057 12.31421 1892 ft 91 kts 148°
2026-05-06 16:33 45.52409 12.31613 1806 ft 100 kts 174°
2026-05-06 16:33 45.51748 12.31341 1741 ft 108 kts 219°
2026-05-06 16:33 45.51568 12.30308 1766 ft 113 kts 282°
2026-05-06 16:34 45.52861 12.30322 1538 ft 123 kts 85°
2026-05-06 16:34 45.52609 12.31358 1531 ft 105 kts 145°
2026-05-06 16:34 45.51981 12.31233 1574 ft 104 kts 224°
2026-05-06 16:34 45.51900 12.30217 1625 ft 108 kts 286°
2026-05-06 16:35 45.52462 12.29508 1709 ft 116 kts 338°
2026-05-06 16:35 45.53164 12.29726 1836 ft 102 kts 58°
2026-05-06 16:35 45.53164 12.30583 1872 ft 90 kts 120°
2026-05-06 16:35 45.52813 12.31334 1950 ft 89 kts 133°
2026-05-06 16:36 45.52457 12.31999 2077 ft 83 kts 134°
2026-05-06 16:36 45.52068 12.32637 2090 ft 91 kts 135°
2026-05-06 16:36 45.51617 12.33343 2055 ft 99 kts 135°
2026-05-06 16:36 45.51160 12.34057 2128 ft 95 kts 136°
2026-05-06 16:37 45.50705 12.34849 1987 ft 112 kts 129°
2026-05-06 16:37 45.50221 12.35790 1816 ft 121 kts 129°
2026-05-06 16:37 45.49770 12.36810 1643 ft 122 kts 124°
2026-05-06 16:37 45.49302 12.37820 1507 ft 121 kts 127°
2026-05-06 16:38 45.48825 12.38761 1505 ft 113 kts 130°
2026-05-06 16:38 45.48353 12.39627 1501 ft 108 kts 131°
2026-05-06 16:38 45.47894 12.40469 1497 ft 108 kts 130°
2026-05-06 16:38 45.47424 12.41311 1490 ft 109 kts 131°
2026-05-06 16:39 45.46954 12.42180 1499 ft 112 kts 130°
2026-05-06 16:39 45.46483 12.43055 1498 ft 110 kts 129°
2026-05-06 16:39 45.46024 12.43896 1495 ft 105 kts 132°
2026-05-06 16:39 45.45582 12.44716 1469 ft 104 kts 134°
2026-05-06 16:40 45.45045 12.44849 1471 ft 89 kts 220°
2026-05-06 16:40 45.44870 12.43887 1223 ft 99 kts 248°
2026-05-06 16:40 45.44674 12.42972 952 ft 92 kts 242°
2026-05-06 16:40 45.44438 12.42173 739 ft 84 kts 237°
2026-05-06 16:41 45.44165 12.41447 550 ft 86 kts 224°
2026-05-06 16:41 45.43866 12.40743 355 ft 79 kts 229°
2026-05-06 16:41 45.43550 12.40127 200 ft 72 kts 227°
2026-05-06 16:41 45.43255 12.39579 70 ft 69 kts 225°
2026-05-06 16:42 45.42987 12.39102 12 ft 54 kts 230°
2026-05-06 16:42 45.42750 12.38542 112 ft 80 kts 241°
2026-05-06 16:42 45.42420 12.37840 378 ft 90 kts 229°
2026-05-06 16:42 45.41989 12.37208 749 ft 89 kts 213°
2026-05-06 16:43 45.41460 12.36685 1026 ft 98 kts 208°
2026-05-06 16:43 45.40897 12.36132 1360 ft 99 kts 207°
2026-05-06 16:43 45.40229 12.35659 1494 ft 120 kts 203°
2026-05-06 16:43 45.39428 12.35112 1511 ft 133 kts 202°
2026-05-06 16:44 45.38555 12.34551 1512 ft 141 kts 201°
2026-05-06 16:44 45.37648 12.33964 1507 ft 144 kts 202°
2026-05-06 16:44 45.37038 12.33591 1505 ft 145 kts 200°
2026-05-06 16:44 45.35798 12.32879 1501 ft 146 kts 199°
2026-05-06 16:45 45.34836 12.32373 1505 ft 147 kts 198°
2026-05-06 16:45 45.33881 12.31861 1503 ft 145 kts 197°
2026-05-06 16:45 45.32935 12.31991 1486 ft 143 kts 147°
2026-05-06 16:45 45.32273 12.33053 1488 ft 142 kts 137°
2026-05-06 16:46 45.31965 12.33898 1483 ft 148 kts 104°
2026-05-06 16:46 45.32308 12.35262 1486 ft 157 kts 48°
2026-05-06 16:46 45.33340 12.35699 1485 ft 162 kts 351°
2026-05-06 16:46 45.34226 12.34797 1480 ft 161 kts 296°
2026-05-06 16:47 45.34707 12.33397 1484 ft 164 kts 308°
2026-05-06 16:47 45.35734 12.32683 1488 ft 167 kts 355°
2026-05-06 16:47 45.36877 12.32884 1491 ft 165 kts 12°
2026-05-06 16:47 45.37971 12.33272 1491 ft 165 kts 25°
2026-05-06 16:48 45.38991 12.34005 1500 ft 164 kts 29°
2026-05-06 16:48 45.40008 12.34752 1498 ft 163 kts 28°
2026-05-06 16:48 45.40945 12.35483 1484 ft 144 kts 39°
2026-05-06 16:48 45.41536 12.36548 1486 ft 132 kts 63°
2026-05-06 16:49 45.42025 12.37628 1495 ft 129 kts 60°
2026-05-06 16:49 45.42488 12.38699 1496 ft 125 kts 60°
2026-05-06 16:49 45.43025 12.39677 1483 ft 129 kts 34°
2026-05-06 16:49 45.43883 12.39661 1494 ft 128 kts 332°
2026-05-06 16:50 45.44619 12.38990 1487 ft 124 kts 305°
2026-05-06 16:50 45.45132 12.38015 1492 ft 125 kts 311°
2026-05-06 16:50 45.45806 12.37199 1449 ft 129 kts 316°
2026-05-06 16:50 45.46448 12.36524 1216 ft 106 kts 321°
2026-05-06 16:51 45.47006 12.35954 895 ft 97 kts 317°
2026-05-06 16:51 45.47497 12.35337 692 ft 90 kts 317°
2026-05-06 16:51 45.47982 12.34768 501 ft 90 kts 319°
2026-05-06 16:51 45.48469 12.34293 333 ft 83 kts 333°
2026-05-06 16:52 45.49004 12.34033 193 ft 79 kts 337°
2026-05-06 16:52 45.49513 12.33918 37 ft 71 kts 33°
2026-05-06 16:52 45.49842 12.34327 8 ft 53 kts 42°
2026-05-06 16:52 45.50055 12.34500 10 ft 18 kts 265°
2026-05-06 16:53 45.50050 12.34340 10 ft 15 kts 268°
2026-05-06 16:53 45.50044 12.34200 9 ft 14 kts 267°
2026-05-06 16:53 45.50040 12.34066 10 ft 13 kts 259°
2026-05-06 16:53 45.49996 12.33970 10 ft 11 kts 225°
2026-05-06 16:54 45.49948 12.33907 10 ft 8 kts 221°
2026-05-06 16:54 45.49908 12.33856 10 ft 7 kts 218°
2026-05-06 16:54 45.49878 12.33820 10 ft 5 kts 220°
2026-05-06 16:54 45.49855 12.33789 10 ft 4 kts 230°
2026-05-06 16:55 45.49840 12.33771 10 ft 2 kts 221°
2026-05-06 16:55 45.49840 12.33770 10 ft 0 kts 226°
2026-05-06 16:55 45.49811 12.33734 11 ft 14 kts 231°
2026-05-06 16:55 45.49857 12.33654 10 ft 0 kts 58°